PERSEUS-M1

Last updated on Wed Oct 29 2025 00:03:53 GMT+0000 (Coordinated Universal Time)

1 40039U 14033AF 25301.40619810 .00002925 00000+0 27666-3 0 9994 2 40039 97.9387 237.2768 0011816 354.5435 5.5654 14.94424285616003
UTC large
Height (km)
Speed (km/s)
/
Latitude / Longitude
Inclination (degrees)
Orbital Period (minutes)
Azimuth
Elevation
Range (km)
Doppler Factor

Next 0 passes for location: London (51.5072 / 0.1276)

Sorry there are no passes over London.